Location: Brownlee
(50.7397°N, 106.0159°W)
Time: 08:50:17
(UTC+00:00)

Envisat - Pass Details

Date: 10 December 2022
Orbit: 763 x 765 km, 98.2° (Epoch: 04 February)

Event Time Altitude Azimuth Distance (km) Brightness Sun altitude
Rises 13:17:18 0° 3° (N) 3,247 6.1 -14.5°
Reaches altitude 10° 13:20:30 10° 342° (NNW) 2,316 5.1 -14.0°
Enters shadow 13:22:06 14° 324° (NW) 2,032 4.7 -13.8°
